This is the latest recevied weather packets stored in our database for station/object WX7EM. If no packets are shown the sender has not sent any weather packets the latest 10 day(s).
| Time | Temp. | Humidity | Pressure | Rain* | Wind** | Luminosity | Snow |
|---|---|---|---|---|---|---|---|
| 1778255343 | 11.67° C | 78% | 1020.8 hPa | 0 mm | - | 216 W/m² | - |
| 1778255041 | 12.22° C | 77% | 1020.6 hPa | 0 mm | - | 179 W/m² | - |
| 1778254738 | 11.67° C | 77% | 1020.8 hPa | 0 mm | - | 326 W/m² | - |
| 1778254435 | 11.11° C | 80% | 1020.9 hPa | 0 mm | - | 359 W/m² | - |
| 1778254131 | 11.11° C | 80% | 1021 hPa | 0 mm | - | 344 W/m² | - |
| 1778253827 | 11.11° C | 81% | 1021 hPa | 0 mm | - | 217 W/m² | - |
| 1778253524 | 10.56° C | 83% | 1020.8 hPa | 0 mm | - | 254 W/m² | - |
| 1778253221 | 10° C | 85% | 1020.9 hPa | 0 mm | - | 139 W/m² | - |
| 1778252917 | 10° C | 85% | 1020.9 hPa | 0 mm | - | 94 W/m² | - |
| 1778252614 | 10° C | 85% | 1021.1 hPa | 0 mm | - | 103 W/m² | - |
| 1778252310 | 10° C | 85% | 1021.2 hPa | 0 mm | - | 109 W/m² | - |
| 1778252006 | 10° C | 84% | 1021.1 hPa | 0 mm | - | 90 W/m² | - |
| 1778251703 | 10° C | 84% | 1021.1 hPa | 0 mm | - | 89 W/m² | - |
| 1778251401 | 10° C | 83% | 1021.2 hPa | 0 mm | - | 104 W/m² | - |
| 1778251098 | 10° C | 84% | 1021.3 hPa | 0 mm | - | 111 W/m² | - |
| 1778250795 | 10° C | 84% | 1021.3 hPa | 0 mm | - | 97 W/m² | - |
| 1778250492 | 10° C | 84% | 1021.3 hPa | 0 mm | - | 98 W/m² | - |
| 1778250189 | 10° C | 86% | 1021.3 hPa | 0 mm | - | 100 W/m² | - |
| 1778249885 | 9.44° C | 86% | 1021 hPa | 0 mm | - | 101 W/m² | - |
| 1778249583 | 9.44° C | 86% | 1021.3 hPa | 0 mm | - | 101 W/m² | - |
| 1778249280 | 9.44° C | 87% | 1020.9 hPa | 0 mm | - | 102 W/m² | - |
| 1778248977 | 9.44° C | 88% | 1021.1 hPa | 0 mm | - | 66 W/m² | - |
| 1778248673 | 9.44° C | 88% | 1021 hPa | 0 mm | - | 44 W/m² | - |
| 1778248369 | 8.89° C | 88% | 1020.9 hPa | 0 mm | - | 57 W/m² | - |
| 1778248065 | 8.89° C | 89% | 1021 hPa | 0 mm | - | 67 W/m² | - |
* Rain latest hour (hover to see other rain measurements)
** Current wind speed in m/s (hover to see current wind gust speed)